Weather History for Newport Airport, OR

Change the Weather History Date:

Friday, September 6, 2013

  Actual Average Record
Temperature  
Mean Temperature 62 °F -  
Max Temperature 68 °F 62 °F 68 °F (2013)
Min Temperature 55 °F 50 °F 44 °F (2006)
Degree Days  
Heating Degree Days 4    
Growing Degree Days 12 (Base 50)    
Moisture  
Dew Point 59 °F    
Average Humidity 93    
Maximum Humidity 100    
Minimum Humidity 73    
Precipitation  
Precipitation 0.03 in - - ()
Sea Level Pressure  
Sea Level Pressure 30.17 in    
Wind  
Wind Speed 7 mph (SW)    
Max Wind Speed 10 mph    
Max Gust Speed -    
Visibility 6 miles    
Events Fog , Rain    
Averages and records for this station are not official NWS values.
T = Trace of Precipitation, MM = Missing Value Source: NWS Daily Summary

Daily Weather History Graph

Daily Weather History Graph

Search for Another Location

Airport:

Trip Planner

Search our weather history database for the weather conditions in past years. The results will help you decide how hot, cold, wet, or windy it might be!

Date:

Astronomy

Sep. 06, 2013 Rise Set
Actual Time 6:45 AM PDT 7:43 PM PDT
Civil Twilight 6:15 AM PDT 8:12 PM PDT
Nautical Twilight 5:39 AM PDT 8:48 PM PDT
Astronomical Twilight 5:02 AM PDT 9:25 PM PDT
Moon 8:08 AM PDT (9/6) 8:03 PM PDT (9/6)
Length of Visible Light 13h 57m
Length of Day
12h 57m
New Moon, 2% of the Moon is Illuminated
Sep 6
New Moon
Sep 12
First Quarter
Sep 19
Full
Sep 26
Last Quarter
Oct 4
New

Hourly Weather History & Observations

Time (PDT) Temp. Dew Point Humidity Pressure Visibility Wind Dir Wind Speed Gust Speed Precip Events Conditions
12:15 AM 60.8 °F 60.8 °F 100% 30.14 in 7.0 mi South 10.4 mph - N/A   Overcast
12:35 AM 60.8 °F 60.8 °F 100% 30.14 in 7.0 mi South 10.4 mph - N/A   Overcast
12:55 AM 60.8 °F 60.8 °F 100% 30.13 in 7.0 mi SSW 10.4 mph - N/A   Overcast
1:15 AM 60.8 °F 60.8 °F 100% 30.13 in 7.0 mi SSW 10.4 mph - N/A   Overcast
1:35 AM 60.8 °F 60.8 °F 100% 30.13 in 7.0 mi SSW 10.4 mph - N/A   Overcast
1:55 AM 60.8 °F 60.8 °F 100% 30.14 in 7.0 mi SSW 10.4 mph - N/A   Overcast
2:15 AM 60.8 °F 60.8 °F 100% 30.13 in 7.0 mi SSW 10.4 mph - N/A   Overcast
2:35 AM 60.8 °F 60.8 °F 100% 30.14 in 7.0 mi SSW 8.1 mph - N/A   Overcast
2:55 AM 60.8 °F 60.8 °F 100% 30.14 in 5.0 mi SSW 9.2 mph - N/A   Overcast
3:15 AM 60.8 °F 60.8 °F 100% 30.14 in 5.0 mi SW 5.8 mph - N/A Rain Rain
3:35 AM 60.8 °F 60.8 °F 100% 30.14 in 5.0 mi WSW 5.8 mph - 0.01 in Rain Light Rain
3:55 AM 60.8 °F 60.8 °F 100% 30.14 in 7.0 mi WSW 4.6 mph - 0.01 in   Light Drizzle
4:15 AM 60.8 °F 60.8 °F 100% 30.14 in 7.0 mi SW 5.8 mph - N/A   Overcast
4:35 AM 60.8 °F 60.8 °F 100% 30.14 in 7.0 mi SW 4.6 mph - N/A   Overcast
4:55 AM 60.8 °F 60.8 °F 100% 30.14 in 7.0 mi WSW 4.6 mph - N/A   Overcast
5:15 AM 60.8 °F 60.8 °F 100% 30.14 in 7.0 mi WSW 5.8 mph - N/A   Overcast
5:35 AM 60.8 °F 60.8 °F 100% 30.14 in 7.0 mi WSW 4.6 mph - N/A   Overcast
5:55 AM 60.8 °F 60.8 °F 100% 30.14 in 7.0 mi WSW 4.6 mph - N/A   Overcast
6:15 AM 60.8 °F 59.0 °F 94% 30.15 in 7.0 mi WSW 4.6 mph - N/A   Overcast
6:35 AM 60.8 °F 59.0 °F 94% 30.16 in 7.0 mi SW 3.5 mph - N/A   Overcast
6:55 AM 60.8 °F 59.0 °F 94% 30.16 in 5.0 mi SW 5.8 mph - N/A   Overcast
7:15 AM 60.8 °F 59.0 °F 94% 30.17 in 4.0 mi SW 5.8 mph - N/A   Overcast
7:35 AM 60.8 °F 59.0 °F 94% 30.17 in 5.0 mi SW 5.8 mph - N/A   Overcast
7:55 AM 60.8 °F 60.8 °F 100% 30.18 in 5.0 mi SSW 5.8 mph - N/A   Overcast
8:15 AM 60.8 °F 59.0 °F 94% 30.18 in 4.0 mi SW 4.6 mph - N/A Rain Light Rain
8:35 AM 62.6 °F 60.8 °F 94% 30.18 in 5.0 mi SSW 5.8 mph - N/A   Overcast
8:55 AM 60.8 °F 59.0 °F 94% 30.18 in 5.0 mi SSW 4.6 mph - N/A   Overcast
9:15 AM 62.6 °F 59.0 °F 88% 30.19 in 7.0 mi SW 4.6 mph - N/A   Overcast
9:35 AM 62.6 °F 59.0 °F 88% 30.19 in 5.0 mi SSW 4.6 mph - N/A   Overcast
9:55 AM 62.6 °F 59.0 °F 88% 30.19 in 5.0 mi Calm Calm - N/A Rain Light Rain
10:15 AM 62.6 °F 60.8 °F 94% 30.19 in 5.0 mi SSW 4.6 mph - N/A   Overcast
10:35 AM 62.6 °F 60.8 °F 94% 30.20 in 5.0 mi SSW 6.9 mph - N/A   Overcast
10:55 AM 64.4 °F 59.0 °F 83% 30.20 in 7.0 mi WSW 5.8 mph - N/A   Overcast
11:15 AM 64.4 °F 59.0 °F 83% 30.19 in 7.0 mi SW 3.5 mph - N/A   Overcast
11:35 AM 64.4 °F 59.0 °F 83% 30.20 in 7.0 mi SW 4.6 mph - N/A   Mostly Cloudy
11:55 AM 64.4 °F 59.0 °F 83% 30.19 in 7.0 mi SW 6.9 mph - N/A   Mostly Cloudy
12:15 PM 66.2 °F 59.0 °F 78% 30.19 in 10.0 mi SW 10.4 mph - N/A   Scattered Clouds
12:35 PM 66.2 °F 59.0 °F 78% 30.19 in 10.0 mi SSW 8.1 mph - N/A   Mostly Cloudy
12:55 PM 68.0 °F 59.0 °F 73% 30.19 in 10.0 mi SSW 9.2 mph - N/A   Mostly Cloudy
1:15 PM 66.2 °F 59.0 °F 78% 30.20 in 10.0 mi SW 8.1 mph - N/A   Overcast
1:35 PM 64.4 °F 59.0 °F 83% 30.20 in 10.0 mi SW 5.8 mph - N/A   Overcast
1:55 PM 64.4 °F 59.0 °F 83% 30.20 in 10.0 mi SSW 6.9 mph - N/A   Overcast
2:15 PM 66.2 °F 59.0 °F 78% 30.20 in 7.0 mi SW 6.9 mph - N/A   Overcast
2:35 PM 66.2 °F 59.0 °F 78% 30.19 in 7.0 mi SW 8.1 mph - N/A   Overcast
2:55 PM 66.2 °F 59.0 °F 78% 30.20 in 10.0 mi SW 8.1 mph - N/A   Overcast
3:15 PM 64.4 °F 59.0 °F 83% 30.20 in 7.0 mi SSW 6.9 mph - N/A   Overcast
3:35 PM 64.4 °F 59.0 °F 83% 30.19 in 7.0 mi SW 8.1 mph - N/A   Overcast
3:55 PM 64.4 °F 59.0 °F 83% 30.19 in 7.0 mi South 8.1 mph - N/A   Overcast
4:15 PM 64.4 °F 59.0 °F 83% 30.19 in 7.0 mi SSW 8.1 mph - N/A   Overcast
4:35 PM 64.4 °F 59.0 °F 83% 30.19 in 7.0 mi SSW 5.8 mph - N/A   Overcast
4:55 PM 62.6 °F 59.0 °F 88% 30.19 in 7.0 mi WSW 5.8 mph - N/A   Overcast
5:15 PM 60.8 °F 59.0 °F 94% 30.19 in 1.8 mi WSW 3.5 mph - 0.01 in   Heavy Drizzle
5:35 PM 60.8 °F 60.8 °F 100% 30.19 in 2.5 mi Calm Calm - 0.02 in   Light Drizzle
5:55 PM 60.8 °F 60.8 °F 100% 30.19 in 3.0 mi Calm Calm - 0.02 in   Overcast
6:15 PM 60.8 °F 59.0 °F 94% 30.18 in 3.0 mi WSW 3.5 mph - N/A   Overcast
6:35 PM 60.8 °F 59.0 °F 94% 30.17 in 7.0 mi South 3.5 mph - N/A   Overcast
6:55 PM 60.8 °F 59.0 °F 94% 30.17 in 7.0 mi SW 3.5 mph - N/A   Overcast
7:15 PM 60.8 °F 59.0 °F 94% 30.17 in 3.0 mi WSW 3.5 mph - N/A   Overcast
7:35 PM 60.8 °F 59.0 °F 94% 30.17 in 2.0 mi Calm Calm - N/A   Drizzle
7:55 PM 60.8 °F 59.0 °F 94% 30.17 in 7.0 mi Calm Calm - N/A   Overcast
8:15 PM 60.8 °F 59.0 °F 94% 30.17 in 10.0 mi Calm Calm - N/A   Overcast
8:35 PM 60.8 °F 59.0 °F 94% 30.17 in 10.0 mi Calm Calm - N/A   Overcast
8:55 PM 59.0 °F 59.0 °F 100% 30.17 in 10.0 mi ENE 3.5 mph - N/A   Overcast
9:15 PM 60.8 °F 59.0 °F 94% 30.17 in 10.0 mi Calm Calm - N/A   Overcast
9:35 PM 60.8 °F 59.0 °F 94% 30.17 in 10.0 mi Calm Calm - N/A   Overcast
9:55 PM 59.0 °F 59.0 °F 100% 30.16 in 7.0 mi Calm Calm - N/A   Mostly Cloudy
10:15 PM 59.0 °F 59.0 °F 100% 30.16 in 1.2 mi ENE 3.5 mph - N/A   Scattered Clouds
10:35 PM 57.2 °F 57.2 °F 100% 30.15 in 7.0 mi Calm Calm - N/A   Clear
10:55 PM 55.4 °F 55.4 °F 100% 30.15 in 3.0 mi Calm Calm - N/A   Clear
11:15 PM 55.4 °F 55.4 °F 100% 30.15 in 0.5 mi Calm Calm - N/A Fog Fog
11:35 PM 57.2 °F 55.4 °F 94% 30.14 in 2.0 mi East 5.8 mph - N/A   Scattered Clouds
11:55 PM 57.2 °F 57.2 °F 100% 30.14 in 0.8 mi East 5.8 mph - N/A   Overcast